Olathe, KS

1:32 PM CST on January 17, 2018 (GMT -0600)
Johnson County Executive

Weather History for KOJC - October, 2013

Change the Weather History Date:

Monday, October 14, 2013

  Actual Average Record
Temperature  
Mean Temperature 60 °F 58 °F  
Max Temperature 66 °F 68 °F 90 °F (1963)
Min Temperature 53 °F 48 °F 29 °F (1969)
Degree Days  
Heating Degree Days 5 8  
Month to date heating degree days 59 89  
Since 1 July heating degree days 86 138  
Cooling Degree Days 0 1  
Month to date cooling degree days 31 21  
Year to date cooling degree days 1360 1342  
Growing Degree Days 10 (Base 50)    
Moisture  
Dew Point 48 °F    
Average Humidity 67    
Maximum Humidity 90    
Minimum Humidity 43    
Precipitation  
Precipitation 0.14 in 0.12 in 2.92 in (1960)
Month to date precipitation 0.83 1.73  
Year to date precipitation 30.33 34.20  
Sea Level Pressure  
Sea Level Pressure 30.04 in    
Wind  
Wind Speed 15 mph (SSE)    
Max Wind Speed 28 mph    
Max Gust Speed 37 mph    
Visibility 10 miles    
Events Rain    
T = Trace of Precipitation, MM = Missing Value Source: NWS Daily Summary

Daily Weather History Graph

Daily Weather History Graph

Search for Another Location

Airport or City:

Trip Planner

Search our weather history database for the weather conditions in past years. The results will help you decide how hot, cold, wet, or windy it might be!

Date:

Astronomy

Oct. 14, 2013 Rise Set
Actual Time 7:27 AM CDT 6:41 PM CDT
Civil Twilight 7:00 AM CDT 7:08 PM CDT
Nautical Twilight 6:29 AM CDT 7:39 PM CDT
Astronomical Twilight 5:59 AM CDT 8:09 PM CDT
Moon 4:09 PM CDT (10/14) 2:47 AM CDT (10/14)
Length of Visible Light 12h 07m
Length of Day
11h 13m
Waxing Gibbous, 79% of the Moon is Illuminated
Oct 14
Waxing Gibbous
Oct 18
Full
Oct 26
Last Quarter
Nov 3
New
Nov 9
First Quarter

Hourly Weather History & Observations

Time (CDT) Temp. Dew Point Humidity Pressure Visibility Wind Dir Wind Speed Gust Speed Precip Events Conditions
12:53 AM 54.0 °F 34.0 °F 47% 30.27 in 10.0 mi ESE 6.9 mph - N/A   Clear
1:53 AM 55.0 °F 33.1 °F 43% 30.27 in 10.0 mi ESE 6.9 mph - N/A   Clear
2:53 AM 55.0 °F 34.0 °F 45% 30.25 in 10.0 mi ESE 10.4 mph - N/A   Clear
3:53 AM 54.0 °F 35.1 °F 49% 30.23 in 10.0 mi ESE 10.4 mph - N/A   Clear
4:53 AM 54.0 °F 35.1 °F 49% 30.22 in 10.0 mi ESE 10.4 mph - N/A   Clear
5:53 AM 55.0 °F 35.1 °F 47% 30.19 in 10.0 mi ESE 11.5 mph 19.6 mph N/A   Clear
6:53 AM 55.0 °F 36.0 °F 49% 30.20 in 10.0 mi SE 10.4 mph 19.6 mph N/A   Clear
7:53 AM 54.0 °F 37.0 °F 53% 30.18 in 10.0 mi SE 9.2 mph - N/A   Partly Cloudy
8:53 AM 55.0 °F 37.9 °F 53% 30.18 in 10.0 mi SSE 12.7 mph - N/A   Clear
9:53 AM 57.9 °F 39.0 °F 49% 30.17 in 10.0 mi SSE 15.0 mph 21.9 mph N/A   Partly Cloudy
10:53 AM 61.0 °F 39.0 °F 44% 30.14 in 10.0 mi SSE 15.0 mph 21.9 mph N/A   Clear
11:53 AM 63.0 °F 41.0 °F 45% 30.11 in 10.0 mi SSE 18.4 mph 25.3 mph N/A   Clear
12:53 PM 66.0 °F 46.0 °F 48% 30.08 in 10.0 mi SSE 19.6 mph 25.3 mph N/A   Clear
1:53 PM 64.9 °F 48.0 °F 54% 30.04 in 10.0 mi SSE 16.1 mph - N/A   Mostly Cloudy
2:08 PM 62.6 °F 48.2 °F 59% 30.05 in 10.0 mi SSE 16.1 mph 23.0 mph 0.00 in Rain Light Rain
2:53 PM 60.1 °F 53.1 °F 78% 30.01 in 8.0 mi SSE 12.7 mph 17.3 mph 0.03 in Rain Light Rain
3:07 PM 59.0 °F 53.6 °F 82% 30.01 in 7.0 mi SSE 9.2 mph - 0.01 in Rain Light Rain
3:53 PM 60.1 °F 54.0 °F 80% 29.98 in 8.0 mi SE 9.2 mph - 0.02 in Rain Light Rain
4:53 PM 60.1 °F 54.0 °F 80% 29.96 in 10.0 mi SSE 11.5 mph - 0.01 in   Mostly Cloudy
5:20 PM 60.8 °F 53.6 °F 77% 29.95 in 10.0 mi SE 9.2 mph - N/A   Overcast
5:53 PM 60.1 °F 55.0 °F 83% 29.95 in 10.0 mi SSE 11.5 mph - N/A   Overcast
6:53 PM 61.0 °F 55.9 °F 83% 29.94 in 10.0 mi SSE 15.0 mph - N/A   Overcast
7:02 PM 60.8 °F 55.4 °F 82% 29.94 in 10.0 mi SSE 15.0 mph - N/A   Overcast
7:53 PM 61.0 °F 57.0 °F 87% 29.90 in 10.0 mi SSE 17.3 mph 24.2 mph 0.00 in   Partly Cloudy
8:27 PM 60.8 °F 57.2 °F 88% 29.90 in 9.0 mi SSE 13.8 mph 25.3 mph N/A   Mostly Cloudy
8:53 PM 62.1 °F 57.9 °F 86% 29.90 in 9.0 mi South 20.7 mph 25.3 mph N/A   Overcast
9:53 PM 62.1 °F 55.9 °F 80% 29.89 in 9.0 mi South 24.2 mph 32.2 mph N/A   Overcast
10:13 PM 60.8 °F 57.2 °F 88% 29.89 in 6.0 mi South 24.2 mph 34.5 mph 0.00 in Rain Light Rain
10:51 PM 60.8 °F 57.2 °F 88% 29.89 in 9.0 mi South 20.7 mph 32.2 mph 0.00 in   Overcast
10:53 PM 60.1 °F 57.0 °F 90% 29.88 in 9.0 mi South 24.2 mph 31.1 mph 0.00 in   Overcast
11:34 PM 60.8 °F 57.2 °F 88% 29.89 in 10.0 mi South 20.7 mph 27.6 mph N/A   Overcast
11:53 PM 60.1 °F 55.9 °F 86% 29.86 in 10.0 mi South 23.0 mph 31.1 mph 0.00 in   Overcast